Location: Donzy-le-Pr�
(47.3659°N, 3.1107°E)
Time: 17:14:52
(UTC+00:00)

USA 306 - Pass Details

Date: 03 March 2021
Orbit: 564 x 577 km, 54.0° (Epoch: 17 April)

Event Time Altitude Azimuth Distance (km) Brightness Sun altitude
Rises 18:19:02 0° 272° (W) 2,773 8.9 -8.1°
Reaches altitude 10° 18:21:25 10° 282° (WNW) 1,874 7.1 -8.5°
Maximum altitude 18:25:23 36° 350° (N) 908 4.0 -9.2°
Drops below altitude 10° 18:29:20 10° 58° (ENE) 1,869 5.0 -9.9°
Enters shadow 18:29:30 - 59° (ENE) 1,929 5.1 -9.9°
